EST,Max TemperatureF,Mean TemperatureF,Min TemperatureF,Max Dew PointF,MeanDew PointF,Min DewpointF,Max Humidity, Mean Humidity, Min Humidity, Max Sea Level PressureIn, Mean Sea Level PressureIn, Min Sea Level PressureIn, Max VisibilityMiles, Mean VisibilityMiles, Min VisibilityMiles, Max Wind SpeedMPH, Mean Wind SpeedMPH, Max Gust SpeedMPH,PrecipitationIn, CloudCover, Events, WindDirDegrees
2012-12-1,40,36,31,36,32,29,90,80,67,30.36,30.28,30.13,,,,20,13,24,0.00,,,86
2012-12-2,52,46,39,48,44,38,95,83,47,30.13,29.99,29.87,,,,20,10,28,0.43,,,215
2012-12-3,46,44,41,44,41,39,93,87,72,30.22,30.15,30.02,,,,14,8,,0.00,,,146
2012-12-4,63,54,44,53,48,42,97,81,52,30.02,29.94,29.88,,,,14,7,25,0.08,,,222
2012-12-5,38,34,31,41,27,17,87,65,43,30.40,30.23,29.98,,,,28,18,29,0.00,,,311
2012-12-6,39,34,29,28,22,18,76,60,41,30.41,30.26,30.03,,,,14,5,,0.00,,,127
2012-12-7,46,40,35,41,36,27,93,76,58,30.02,29.96,29.92,,,,9,4,,0.00,,,187
2012-12-8,44,41,37,43,39,29,97,89,65,30.16,29.90,29.79,,,,23,8,25,0.04,,,18
2012-12-9,38,34,31,36,28,20,95,74,50,30.29,30.14,29.74,,,,25,13,31,0.16,,,60
2012-12-10,43,40,36,42,37,27,98,84,61,29.76,29.62,29.50,,,,23,11,28,0.16,,,278
2012-12-11,34,32,29,27,25,22,90,73,56,30.15,30.00,29.81,,,,17,10,23,0.00,,,330
2012-12-12,43,38,32,32,29,25,83,70,56,30.41,30.30,30.17,,,,17,10,23,0.00,,,234
2012-12-13,45,40,34,31,29,26,85,65,38,30.42,30.35,30.17,,,,9,6,,0.00,,,200
2012-12-14,44,40,36,35,31,28,90,68,52,30.27,30.21,30.15,,,,16,10,21,0.00,,,256
2012-12-15,40,37,34,33,32,31,90,80,68,30.27,30.16,29.94,,,,24,9,20,0.00,,,94
2012-12-16,56,47,38,43,39,33,86,72,50,29.91,29.73,29.65,,,,16,13,23,0.02,,,142
2012-12-17,49,46,42,44,41,38,94,83,67,29.74,29.67,29.58,,,,16,10,,0.04,,,210
2012-12-18,43,41,38,42,38,34,97,85,68,29.76,29.60,29.51,,,,21,13,,0.16,,,302
2012-12-19,43,40,36,35,32,30,84,72,56,30.18,29.97,29.75,,,,17,11,,0.00,,,280
2012-12-20,45,40,35,39,31,26,93,73,54,30.17,29.86,29.34,,,,21,11,25,0.16,,,109
2012-12-21,38,36,34,39,33,28,93,83,69,29.43,29.30,29.23,,,,44,15,51,0.08,,,246
2012-12-22,36,34,31,27,25,23,76,67,50,29.94,29.78,29.47,,,,41,34,48,0.00,,,290
2012-12-23,38,34,31,29,26,23,84,69,54,30.01,29.89,29.81,,,,28,13,29,0.00,,,261
2012-12-24,34,32,30,27,22,20,82,64,51,30.05,29.98,29.87,,,,20,13,26,0.00,,,143
2012-12-25,34,32,31,32,27,25,92,78,63,30.33,30.17,29.92,,,,23,7,,0.01,,,86
2012-12-26,32,30,28,29,26,24,96,83,67,30.33,30.10,29.83,,,,36,18,41,0.02,,,80
2012-12-27,30,28,27,28,24,22,96,84,69,30.08,29.90,29.78,,,,33,24,40,0.04,,,359
2012-12-28,29,27,25,25,22,21,89,81,66,30.16,30.11,30.05,,,,20,10,,0.00,,,217
2012-12-29,31,28,25,30,27,22,97,90,74,30.03,29.85,29.73,,,,23,11,30,0.16,,,56
2012-12-30,30,28,27,25,21,15,83,68,50,30.25,30.13,29.89,,,,30,20,38,0.00,,,278
2012-12-31,36,32,27,29,27,23,85,74,61,30.20,29.99,29.86,,,,23,14,29,0.00,,,241